Time,TemperatureF,DewpointF,PressureIn,WindDirection,WindDirectionDegrees,WindSpeedMPH,WindSpeedGustMPH,Humidity,HourlyPrecipIn,Conditions,Clouds,dailyrainin,SoftwareType,DateUTC
2013-02-08 00:01:00,62.8,47.0,30.04,North,9,4.0,9.0,56,0.00,,,0.00,WUHU216DAVISVP2,2013-02-08 06:01:00,
2013-02-08 00:06:00,62.5,47.2,30.04,NNE,13,3.0,8.0,57,0.00,,,0.00,WUHU216DAVISVP2,2013-02-08 06:06:00,
2013-02-08 00:11:00,62.3,47.5,30.04,North,5,6.0,8.0,58,0.00,,,0.00,WUHU216DAVISVP2,2013-02-08 06:11:00,
2013-02-08 00:16:00,62.0,47.6,30.04,North,355,2.0,9.0,59,0.00,,,0.00,WUHU216DAVISVP2,2013-02-08 06:16:00,
2013-02-08 00:21:00,61.8,47.8,30.04,NNE,26,3.0,9.0,60,0.00,,,0.00,WUHU216DAVISVP2,2013-02-08 06:21:00,
2013-02-08 00:26:00,61.4,47.8,30.04,NNE,13,5.0,9.0,61,0.00,,,0.00,WUHU216DAVISVP2,2013-02-08 06:26:00,
2013-02-08 00:31:00,61.1,48.0,30.04,NNE,19,2.0,8.0,62,0.00,,,0.00,WUHU216DAVISVP2,2013-02-08 06:31:00,
2013-02-08 00:36:00,60.6,47.5,30.04,NNW,342,5.0,7.0,62,0.00,,,0.00,WUHU216DAVISVP2,2013-02-08 06:36:00,
2013-02-08 00:41:00,60.7,48.2,30.04,North,11,10.0,14.0,63,0.00,,,0.00,WUHU216DAVISVP2,2013-02-08 06:41:00,
2013-02-08 00:46:00,61.1,48.6,30.04,North,355,7.0,14.0,63,0.00,,,0.00,WUHU216DAVISVP2,2013-02-08 06:46:00,
2013-02-08 00:51:00,61.2,48.7,30.04,North,351,9.0,13.0,63,0.00,,,0.00,WUHU216DAVISVP2,2013-02-08 06:51:00,
2013-02-08 00:56:00,61.2,48.2,30.04,NNW,333,5.0,15.0,62,0.00,,,0.00,WUHU216DAVISVP2,2013-02-08 06:56:00,
2013-02-08 01:01:00,61.1,48.6,30.04,NNE,15,4.0,15.0,63,0.00,,,0.00,WUHU216DAVISVP2,2013-02-08 07:01:00,
2013-02-08 01:06:00,61.0,48.5,30.04,North,351,7.0,15.0,63,0.00,,,0.00,WUHU216DAVISVP2,2013-02-08 07:06:00,
2013-02-08 01:11:00,60.8,48.3,30.04,NNW,346,5.0,15.0,63,0.00,,,0.00,WUHU216DAVISVP2,2013-02-08 07:11:00,
2013-02-08 01:16:00,60.6,48.1,30.04,North,5,9.0,13.0,63,0.00,,,0.00,WUHU216DAVISVP2,2013-02-08 07:16:00,
2013-02-08 01:21:00,60.5,48.4,30.04,North,360,8.0,13.0,64,0.00,,,0.00,WUHU216DAVISVP2,2013-02-08 07:21:00,
2013-02-08 01:26:00,60.2,48.1,30.04,North,355,7.0,13.0,64,0.00,,,0.00,WUHU216DAVISVP2,2013-02-08 07:26:00,
2013-02-08 01:31:00,59.9,47.8,30.03,NNW,348,8.0,13.0,64,0.00,,,0.00,WUHU216DAVISVP2,2013-02-08 07:31:00,
2013-02-08 01:36:00,59.8,48.2,30.03,North,355,4.0,13.0,65,0.00,,,0.00,WUHU216DAVISVP2,2013-02-08 07:36:00,
2013-02-08 01:41:00,59.5,47.9,30.04,NNE,13,4.0,13.0,65,0.00,,,0.00,WUHU216DAVISVP2,2013-02-08 07:41:00,
2013-02-08 01:46:00,59.3,47.7,30.04,NNW,336,4.0,11.0,65,0.00,,,0.00,WUHU216DAVISVP2,2013-02-08 07:46:00,
2013-02-08 01:51:00,59.2,47.6,30.05,NNE,15,4.0,12.0,65,0.00,,,0.00,WUHU216DAVISVP2,2013-02-08 07:51:00,
2013-02-08 01:56:00,59.2,47.0,30.04,North,360,7.0,12.0,64,0.00,,,0.00,WUHU216DAVISVP2,2013-02-08 07:56:00,
2013-02-08 02:01:00,59.1,46.9,30.05,North,9,6.0,12.0,64,0.00,,,0.00,WUHU216DAVISVP2,2013-02-08 08:01:00,
2013-02-08 02:06:00,59.0,46.8,30.05,NE,34,2.0,12.0,64,0.00,,,0.00,WUHU216DAVISVP2,2013-02-08 08:06:00,
2013-02-08 02:11:00,58.8,46.6,30.05,North,350,4.0,12.0,64,0.00,,,0.00,WUHU216DAVISVP2,2013-02-08 08:11:00,
2013-02-08 02:16:00,58.7,46.5,30.05,NNE,19,5.0,11.0,64,0.00,,,0.00,WUHU216DAVISVP2,2013-02-08 08:16:00,
2013-02-08 02:21:00,58.5,46.4,30.06,NNE,26,3.0,11.0,64,0.00,,,0.00,WUHU216DAVISVP2,2013-02-08 08:21:00,
2013-02-08 02:26:00,58.4,46.3,30.06,North,5,4.0,10.0,64,0.00,,,0.00,WUHU216DAVISVP2,2013-02-08 08:26:00,
2013-02-08 02:31:00,58.2,46.6,30.06,NNE,25,2.0,10.0,65,0.00,,,0.00,WUHU216DAVISVP2,2013-02-08 08:31:00,
2013-02-08 02:36:00,57.9,46.3,30.06,North,5,2.0,10.0,65,0.00,,,0.00,WUHU216DAVISVP2,2013-02-08 08:36:00,
2013-02-08 02:41:00,57.6,46.1,30.06,NNE,15,2.0,7.0,65,0.00,,,0.00,WUHU216DAVISVP2,2013-02-08 08:41:00,
2013-02-08 02:46:00,57.4,46.3,30.06,NNE,28,1.0,6.0,66,0.00,,,0.00,WUHU216DAVISVP2,2013-02-08 08:46:00,
2013-02-08 02:51:00,57.2,46.1,30.06,North,360,3.0,6.0,66,0.00,,,0.00,WUHU216DAVISVP2,2013-02-08 08:51:00,
2013-02-08 02:56:00,56.9,45.8,30.06,North,10,2.0,6.0,66,0.00,,,0.00,WUHU216DAVISVP2,2013-02-08 08:56:00,
2013-02-08 03:01:00,56.8,46.1,30.06,North,355,2.0,8.0,67,0.00,,,0.00,WUHU216DAVISVP2,2013-02-08 09:01:00,
2013-02-08 03:06:00,56.6,45.9,30.06,NNE,17,1.0,8.0,67,0.00,,,0.00,WUHU216DAVISVP2,2013-02-08 09:06:00,
2013-02-08 03:11:00,56.6,45.9,30.06,North,5,4.0,8.0,67,0.00,,,0.00,WUHU216DAVISVP2,2013-02-08 09:11:00,
2013-02-08 03:16:00,56.6,45.9,30.06,NNE,21,5.0,9.0,67,0.00,,,0.00,WUHU216DAVISVP2,2013-02-08 09:16:00,
2013-02-08 03:21:00,56.6,45.9,30.06,NNE,12,3.0,11.0,67,0.00,,,0.00,WUHU216DAVISVP2,2013-02-08 09:21:00,
2013-02-08 03:26:00,56.6,45.5,30.06,North,350,5.0,12.0,66,0.00,,,0.00,WUHU216DAVISVP2,2013-02-08 09:26:00,
2013-02-08 03:31:00,56.6,45.5,30.06,North,5,4.0,12.0,66,0.00,,,0.00,WUHU216DAVISVP2,2013-02-08 09:31:00,
2013-02-08 03:36:00,56.4,45.2,30.07,North,5,2.0,12.0,66,0.00,,,0.00,WUHU216DAVISVP2,2013-02-08 09:36:00,
2013-02-08 03:41:00,56.2,45.0,30.07,North,355,5.0,12.0,66,0.00,,,0.00,WUHU216DAVISVP2,2013-02-08 09:41:00,
2013-02-08 03:46:00,56.1,45.3,30.07,North,360,6.0,11.0,67,0.00,,,0.00,WUHU216DAVISVP2,2013-02-08 09:46:00,
2013-02-08 03:51:00,56.0,45.3,30.07,NNW,331,7.0,12.0,67,0.00,,,0.00,WUHU216DAVISVP2,2013-02-08 09:51:00,
2013-02-08 03:56:00,55.9,45.2,30.08,NNE,19,5.0,12.0,67,0.00,,,0.00,WUHU216DAVISVP2,2013-02-08 09:56:00,
2013-02-08 04:01:00,55.8,45.1,30.08,North,355,5.0,12.0,67,0.00,,,0.00,WUHU216DAVISVP2,2013-02-08 10:01:00,
2013-02-08 04:06:00,55.6,44.9,30.08,North,355,5.0,12.0,67,0.00,,,0.00,WUHU216DAVISVP2,2013-02-08 10:06:00,
2013-02-08 04:11:00,55.3,45.0,30.08,North,355,2.0,9.0,68,0.00,,,0.00,WUHU216DAVISVP2,2013-02-08 10:11:00,
2013-02-08 04:16:00,55.1,44.9,30.09,NNE,26,4.0,9.0,68,0.00,,,0.00,WUHU216DAVISVP2,2013-02-08 10:16:00,
2013-02-08 04:21:00,54.8,44.9,30.09,NE,38,4.0,9.0,69,0.00,,,0.00,WUHU216DAVISVP2,2013-02-08 10:21:00,
2013-02-08 04:26:00,54.6,44.8,30.09,NNE,16,3.0,9.0,69,0.00,,,0.00,WUHU216DAVISVP2,2013-02-08 10:26:00,
2013-02-08 04:31:00,54.3,44.5,30.09,NE,34,4.0,8.0,69,0.00,,,0.00,WUHU216DAVISVP2,2013-02-08 10:31:00,
2013-02-08 04:36:00,54.2,44.7,30.09,North,360,5.0,8.0,70,0.00,,,0.00,WUHU216DAVISVP2,2013-02-08 10:36:00,
2013-02-08 04:41:00,54.0,44.6,30.10,North,11,5.0,8.0,70,0.00,,,0.00,WUHU216DAVISVP2,2013-02-08 10:41:00,
2013-02-08 04:46:00,53.8,44.4,30.10,NE,49,1.0,8.0,70,0.00,,,0.00,WUHU216DAVISVP2,2013-02-08 10:46:00,
2013-02-08 04:51:00,53.7,44.6,30.10,NNE,13,4.0,7.0,71,0.00,,,0.00,WUHU216DAVISVP2,2013-02-08 10:51:00,
2013-02-08 04:56:00,53.5,44.4,30.10,NNE,17,1.0,7.0,71,0.00,,,0.00,WUHU216DAVISVP2,2013-02-08 10:56:00,
2013-02-08 05:01:00,53.5,44.3,30.10,NNE,20,2.0,7.0,71,0.00,,,0.00,WUHU216DAVISVP2,2013-02-08 11:01:00,
2013-02-08 05:06:00,53.3,44.2,30.11,NE,37,4.0,7.0,71,0.00,,,0.00,WUHU216DAVISVP2,2013-02-08 11:06:00,
2013-02-08 05:11:00,53.2,44.0,30.11,NNE,24,2.0,7.0,71,0.00,,,0.00,WUHU216DAVISVP2,2013-02-08 11:11:00,
2013-02-08 05:16:00,53.0,43.8,30.11,NNE,22,2.0,7.0,71,0.00,,,0.00,WUHU216DAVISVP2,2013-02-08 11:16:00,
2013-02-08 05:21:00,52.8,43.7,30.11,North,10,4.0,7.0,71,0.00,,,0.00,WUHU216DAVISVP2,2013-02-08 11:21:00,
2013-02-08 05:26:00,52.6,43.9,30.12,North,11,3.0,6.0,72,0.00,,,0.00,WUHU216DAVISVP2,2013-02-08 11:26:00,
2013-02-08 05:31:00,52.3,43.6,30.12,NNE,19,1.0,6.0,72,0.00,,,0.00,WUHU216DAVISVP2,2013-02-08 11:31:00,
2013-02-08 05:36:00,52.1,43.4,30.12,North,355,4.0,6.0,72,0.00,,,0.00,WUHU216DAVISVP2,2013-02-08 11:36:00,
2013-02-08 05:41:00,51.9,43.6,30.12,North,5,1.0,5.0,73,0.00,,,0.00,WUHU216DAVISVP2,2013-02-08 11:41:00,
2013-02-08 05:46:00,51.8,43.5,30.13,NNE,19,2.0,6.0,73,0.00,,,0.00,WUHU216DAVISVP2,2013-02-08 11:46:00,
2013-02-08 05:51:00,51.7,43.4,30.13,North,11,0.0,6.0,73,0.00,,,0.00,WUHU216DAVISVP2,2013-02-08 11:51:00,
2013-02-08 05:56:00,51.5,43.2,30.13,NNW,343,1.0,6.0,73,0.00,,,0.00,WUHU216DAVISVP2,2013-02-08 11:56:00,
2013-02-08 06:01:00,51.3,43.0,30.14,NNW,344,0.0,6.0,73,0.00,,,0.00,WUHU216DAVISVP2,2013-02-08 12:01:00,
2013-02-08 06:06:00,51.1,42.8,30.14,NNE,13,0.0,5.0,73,0.00,,,0.00,WUHU216DAVISVP2,2013-02-08 12:06:00,
2013-02-08 06:11:00,50.9,42.6,30.14,NNE,15,0.0,4.0,73,0.00,,,0.00,WUHU216DAVISVP2,2013-02-08 12:11:00,
2013-02-08 06:16:00,50.6,42.7,30.15,NNE,15,0.0,3.0,74,0.00,,,0.00,WUHU216DAVISVP2,2013-02-08 12:16:00,
2013-02-08 06:21:00,50.4,42.8,30.15,NNE,15,1.0,3.0,75,0.00,,,0.00,WUHU216DAVISVP2,2013-02-08 12:21:00,
2013-02-08 06:26:00,50.0,42.5,30.15,NNE,15,0.0,2.0,75,0.00,,,0.00,WUHU216DAVISVP2,2013-02-08 12:26:00,
2013-02-08 06:31:00,49.7,42.2,30.15,NNE,32,0.0,2.0,75,0.00,,,0.00,WUHU216DAVISVP2,2013-02-08 12:31:00,
2013-02-08 06:36:00,49.3,42.1,30.15,NNE,30,1.0,2.0,76,0.00,,,0.00,WUHU216DAVISVP2,2013-02-08 12:36:00,
2013-02-08 06:41:00,49.1,42.2,30.16,NNE,30,0.0,2.0,77,0.00,,,0.00,WUHU216DAVISVP2,2013-02-08 12:41:00,
2013-02-08 06:46:00,48.8,41.9,30.16,NNE,30,0.0,2.0,77,0.00,,,0.00,WUHU216DAVISVP2,2013-02-08 12:46:00,
2013-02-08 06:51:00,48.6,41.7,30.16,NNE,30,0.0,2.0,77,0.00,,,0.00,WUHU216DAVISVP2,2013-02-08 12:51:00,
2013-02-08 06:56:00,48.4,41.9,30.16,NNE,30,0.0,2.0,78,0.00,,,0.00,WUHU216DAVISVP2,2013-02-08 12:56:00,
2013-02-08 07:01:00,48.2,41.7,30.17,NNE,30,0.0,2.0,78,0.00,,,0.00,WUHU216DAVISVP2,2013-02-08 13:01:00,
2013-02-08 07:06:00,48.1,41.6,30.17,NNE,30,0.0,1.0,78,0.00,,,0.00,WUHU216DAVISVP2,2013-02-08 13:06:00,
2013-02-08 07:11:00,47.9,41.4,30.17,NNE,26,1.0,2.0,78,0.00,,,0.00,WUHU216DAVISVP2,2013-02-08 13:11:00,
2013-02-08 07:16:00,47.7,41.5,30.17,NNE,19,0.0,2.0,79,0.00,,,0.00,WUHU216DAVISVP2,2013-02-08 13:16:00,
2013-02-08 07:21:00,47.5,41.3,30.17,NNE,19,0.0,2.0,79,0.00,,,0.00,WUHU216DAVISVP2,2013-02-08 13:21:00,
2013-02-08 07:26:00,47.4,41.3,30.17,NNE,31,0.0,2.0,79,0.00,,,0.00,WUHU216DAVISVP2,2013-02-08 13:26:00,
2013-02-08 07:31:00,47.3,41.2,30.17,NNE,32,0.0,2.0,79,0.00,,,0.00,WUHU216DAVISVP2,2013-02-08 13:31:00,
2013-02-08 07:36:00,47.2,41.1,30.18,North,355,1.0,2.0,79,0.00,,,0.00,WUHU216DAVISVP2,2013-02-08 13:36:00,
2013-02-08 07:42:00,47.5,41.3,30.18,NNE,20,1.0,3.0,79,0.00,,,0.00,WUHU216DAVISVP2,2013-02-08 13:42:00,
2013-02-08 07:47:00,48.0,41.5,30.18,NNE,32,2.0,4.0,78,0.00,,,0.00,WUHU216DAVISVP2,2013-02-08 13:47:00,
2013-02-08 07:52:00,48.8,42.0,30.18,NNE,17,4.0,6.0,77,0.00,,,0.00,WUHU216DAVISVP2,2013-02-08 13:52:00,
2013-02-08 07:57:00,49.6,42.4,30.18,North,5,3.0,6.0,76,0.00,,,0.00,WUHU216DAVISVP2,2013-02-08 13:57:00,
2013-02-08 08:02:00,50.2,42.3,30.18,NE,40,0.0,6.0,74,0.00,,,0.00,WUHU216DAVISVP2,2013-02-08 14:02:00,
2013-02-08 08:07:00,50.9,42.6,30.19,North,5,0.0,6.0,73,0.00,,,0.00,WUHU216DAVISVP2,2013-02-08 14:07:00,
2013-02-08 08:12:00,51.5,42.4,30.19,NNE,17,3.0,5.0,71,0.00,,,0.00,WUHU216DAVISVP2,2013-02-08 14:12:00,
2013-02-08 08:17:00,52.2,42.7,30.19,NNE,17,3.0,7.0,70,0.00,,,0.00,WUHU216DAVISVP2,2013-02-08 14:17:00,
2013-02-08 08:22:00,52.7,42.9,30.18,NNE,17,5.0,7.0,69,0.00,,,0.00,WUHU216DAVISVP2,2013-02-08 14:22:00,
2013-02-08 08:27:00,53.1,42.9,30.19,NNE,13,2.0,7.0,68,0.00,,,0.00,WUHU216DAVISVP2,2013-02-08 14:27:00,
2013-02-08 08:32:00,53.2,43.0,30.19,North,5,3.0,7.0,68,0.00,,,0.00,WUHU216DAVISVP2,2013-02-08 14:32:00,
2013-02-08 08:37:00,53.3,43.1,30.19,NNE,27,6.0,7.0,68,0.00,,,0.00,WUHU216DAVISVP2,2013-02-08 14:37:00,
2013-02-08 08:42:00,53.3,42.4,30.19,North,10,5.0,12.0,66,0.00,,,0.00,WUHU216DAVISVP2,2013-02-08 14:42:00,
2013-02-08 08:47:00,53.4,42.0,30.19,NNW,329,9.0,12.0,65,0.00,,,0.00,WUHU216DAVISVP2,2013-02-08 14:47:00,
2013-02-08 08:52:00,53.6,42.2,30.19,NNE,32,4.0,12.0,65,0.00,,,0.00,WUHU216DAVISVP2,2013-02-08 14:52:00,
2013-02-08 08:57:00,54.0,42.2,30.19,NE,55,5.0,12.0,64,0.00,,,0.00,WUHU216DAVISVP2,2013-02-08 14:57:00,
2013-02-08 09:02:00,54.3,42.5,30.19,North,5,3.0,12.0,64,0.00,,,0.00,WUHU216DAVISVP2,2013-02-08 15:02:00,
2013-02-08 09:07:00,54.7,42.5,30.20,NNE,18,8.0,10.0,63,0.00,,,0.00,WUHU216DAVISVP2,2013-02-08 15:07:00,
2013-02-08 09:12:00,54.8,41.7,30.20,North,10,5.0,14.0,61,0.00,,,0.00,WUHU216DAVISVP2,2013-02-08 15:12:00,
2013-02-08 09:17:00,55.0,41.9,30.20,North,5,4.0,15.0,61,0.00,,,0.00,WUHU216DAVISVP2,2013-02-08 15:17:00,
2013-02-08 09:22:00,55.3,41.8,30.20,NNE,13,7.0,15.0,60,0.00,,,0.00,WUHU216DAVISVP2,2013-02-08 15:22:00,
2013-02-08 09:27:00,55.6,41.1,30.20,NNE,24,6.0,15.0,58,0.00,,,0.00,WUHU216DAVISVP2,2013-02-08 15:27:00,
2013-02-08 09:32:00,55.9,41.4,30.20,NNE,17,5.0,15.0,58,0.00,,,0.00,WUHU216DAVISVP2,2013-02-08 15:32:00,
2013-02-08 09:37:00,56.2,41.3,30.20,NNW,340,2.0,12.0,57,0.00,,,0.00,WUHU216DAVISVP2,2013-02-08 15:37:00,
2013-02-08 09:42:00,56.5,41.1,30.20,NE,53,7.0,12.0,56,0.00,,,0.00,WUHU216DAVISVP2,2013-02-08 15:42:00,
2013-02-08 09:47:00,56.8,39.9,30.20,North,11,5.0,15.0,53,0.00,,,0.00,WUHU216DAVISVP2,2013-02-08 15:47:00,
2013-02-08 09:52:00,57.2,39.8,30.20,NNW,331,3.0,15.0,52,0.00,,,0.00,WUHU216DAVISVP2,2013-02-08 15:52:00,
2013-02-08 09:57:00,57.5,39.5,30.20,East,80,5.0,15.0,51,0.00,,,0.00,WUHU216DAVISVP2,2013-02-08 15:57:00,
2013-02-08 10:02:00,57.9,38.8,30.20,NE,39,7.0,13.0,49,0.00,,,0.00,WUHU216DAVISVP2,2013-02-08 16:02:00,
2013-02-08 10:07:00,58.2,38.6,30.20,North,355,5.0,12.0,48,0.00,,,0.00,WUHU216DAVISVP2,2013-02-08 16:07:00,
2013-02-08 10:12:00,59.0,38.7,30.20,North,355,7.0,12.0,47,0.00,,,0.00,WUHU216DAVISVP2,2013-02-08 16:12:00,
2013-02-08 10:17:00,59.6,39.3,30.20,ENE,70,9.0,13.0,47,0.00,,,0.00,WUHU216DAVISVP2,2013-02-08 16:17:00,
2013-02-08 10:22:00,60.1,38.0,30.20,NNE,28,9.0,14.0,44,0.00,,,0.00,WUHU216DAVISVP2,2013-02-08 16:22:00,
2013-02-08 10:27:00,60.3,37.6,30.20,NNW,340,2.0,15.0,43,0.00,,,0.00,WUHU216DAVISVP2,2013-02-08 16:27:00,
2013-02-08 10:32:00,60.7,37.3,30.21,North,9,6.0,15.0,42,0.00,,,0.00,WUHU216DAVISVP2,2013-02-08 16:32:00,
2013-02-08 10:37:00,61.1,38.3,30.20,NNE,15,7.0,15.0,43,0.00,,,0.00,WUHU216DAVISVP2,2013-02-08 16:37:00,
2013-02-08 10:42:00,61.5,36.8,30.20,NNE,26,6.0,15.0,40,0.00,,,0.00,WUHU216DAVISVP2,2013-02-08 16:42:00,
2013-02-08 10:47:00,61.6,36.9,30.20,North,10,10.0,12.0,40,0.00,,,0.00,WUHU216DAVISVP2,2013-02-08 16:47:00,
2013-02-08 10:52:00,62.3,38.2,30.20,NNW,344,9.0,12.0,41,0.00,,,0.00,WUHU216DAVISVP2,2013-02-08 16:52:00,
2013-02-08 10:57:00,62.6,37.1,30.20,NE,47,7.0,12.0,39,0.00,,,0.00,WUHU216DAVISVP2,2013-02-08 16:57:00,
2013-02-08 11:02:00,62.9,36.7,30.20,North,355,7.0,17.0,38,0.00,,,0.00,WUHU216DAVISVP2,2013-02-08 17:02:00,
2013-02-08 11:07:00,63.2,37.0,30.20,East,87,5.0,17.0,38,0.00,,,0.00,WUHU216DAVISVP2,2013-02-08 17:07:00,
2013-02-08 11:12:00,63.7,36.0,30.20,NNE,25,6.0,17.0,36,0.00,,,0.00,WUHU216DAVISVP2,2013-02-08 17:12:00,
2013-02-08 11:17:00,63.8,36.8,30.20,NE,55,4.0,17.0,37,0.00,,,0.00,WUHU216DAVISVP2,2013-02-08 17:17:00,
2013-02-08 11:22:00,64.0,36.3,30.20,North,355,13.0,13.0,36,0.00,,,0.00,WUHU216DAVISVP2,2013-02-08 17:22:00,
2013-02-08 11:27:00,64.5,37.5,30.20,NNE,24,6.0,13.0,37,0.00,,,0.00,WUHU216DAVISVP2,2013-02-08 17:27:00,
2013-02-08 11:32:00,65.0,37.9,30.20,NE,44,2.0,13.0,37,0.00,,,0.00,WUHU216DAVISVP2,2013-02-08 17:32:00,
2013-02-08 11:37:00,65.6,37.7,30.20,NNE,18,6.0,13.0,36,0.00,,,0.00,WUHU216DAVISVP2,2013-02-08 17:37:00,
2013-02-08 11:42:00,65.7,37.1,30.19,NNE,22,7.0,11.0,35,0.00,,,0.00,WUHU216DAVISVP2,2013-02-08 17:42:00,
2013-02-08 11:47:00,65.0,36.5,30.19,ENE,60,4.0,15.0,35,0.00,,,0.00,WUHU216DAVISVP2,2013-02-08 17:47:00,
2013-02-08 11:52:00,65.5,37.1,30.19,NNE,13,4.0,15.0,35,0.00,,,0.00,WUHU216DAVISVP2,2013-02-08 17:52:00,
2013-02-08 11:57:00,65.9,37.3,30.18,NE,51,3.0,15.0,35,0.00,,,0.00,WUHU216DAVISVP2,2013-02-08 17:57:00,
2013-02-08 12:02:00,66.3,37.1,30.18,NE,37,2.0,15.0,34,0.00,,,0.00,WUHU216DAVISVP2,2013-02-08 18:02:00,
2013-02-08 12:07:00,66.7,37.4,30.18,ENE,62,9.0,13.0,34,0.00,,,0.00,WUHU216DAVISVP2,2013-02-08 18:07:00,
2013-02-08 12:12:00,66.7,37.4,30.18,NE,34,8.0,13.0,34,0.00,,,0.00,WUHU216DAVISVP2,2013-02-08 18:12:00,
2013-02-08 12:17:00,67.0,36.9,30.18,NE,45,3.0,12.0,33,0.00,,,0.00,WUHU216DAVISVP2,2013-02-08 18:17:00,
2013-02-08 12:22:00,67.5,36.6,30.17,NE,37,8.0,12.0,32,0.00,,,0.00,WUHU216DAVISVP2,2013-02-08 18:22:00,
2013-02-08 12:27:00,67.9,36.8,30.17,NNE,18,9.0,14.0,32,0.00,,,0.00,WUHU216DAVISVP2,2013-02-08 18:27:00,
2013-02-08 12:32:00,67.8,35.9,30.17,East,80,8.0,14.0,31,0.00,,,0.00,WUHU216DAVISVP2,2013-02-08 18:32:00,
2013-02-08 12:37:00,67.7,36.6,30.16,NNE,24,7.0,15.0,32,0.00,,,0.00,WUHU216DAVISVP2,2013-02-08 18:37:00,
2013-02-08 12:42:00,67.7,35.8,30.16,NNE,26,9.0,15.0,31,0.00,,,0.00,WUHU216DAVISVP2,2013-02-08 18:42:00,
2013-02-08 12:47:00,67.8,35.0,30.15,NNE,29,7.0,15.0,30,0.00,,,0.00,WUHU216DAVISVP2,2013-02-08 18:47:00,
2013-02-08 12:53:00,67.9,35.1,30.15,East,80,5.0,15.0,30,0.00,,,0.00,WUHU216DAVISVP2,2013-02-08 18:53:00,
2013-02-08 12:58:00,67.6,36.5,30.15,NE,42,2.0,15.0,32,0.00,,,0.00,WUHU216DAVISVP2,2013-02-08 18:58:00,
2013-02-08 13:03:00,67.8,35.9,30.15,NE,55,5.0,15.0,31,0.00,,,0.00,WUHU216DAVISVP2,2013-02-08 19:03:00,
2013-02-08 13:08:00,68.0,34.4,30.15,ENE,78,4.0,15.0,29,0.00,,,0.00,WUHU216DAVISVP2,2013-02-08 19:08:00,
2013-02-08 13:13:00,68.3,36.3,30.15,ENE,75,5.0,10.0,31,0.00,,,0.00,WUHU216DAVISVP2,2013-02-08 19:13:00,
2013-02-08 13:18:00,68.7,35.8,30.15,East,84,7.0,13.0,30,0.00,,,0.00,WUHU216DAVISVP2,2013-02-08 19:18:00,
2013-02-08 13:23:00,68.5,35.6,30.14,ENE,64,4.0,13.0,30,0.00,,,0.00,WUHU216DAVISVP2,2013-02-08 19:23:00,
2013-02-08 13:28:00,69.2,37.1,30.14,NNE,17,3.0,11.0,31,0.00,,,0.00,WUHU216DAVISVP2,2013-02-08 19:28:00,
2013-02-08 13:33:00,69.4,35.6,30.13,ENE,73,7.0,10.0,29,0.00,,,0.00,WUHU216DAVISVP2,2013-02-08 19:33:00,
2013-02-08 13:38:00,69.4,37.3,30.13,North,360,3.0,11.0,31,0.00,,,0.00,WUHU216DAVISVP2,2013-02-08 19:38:00,
2013-02-08 13:43:00,69.4,35.6,30.13,ENE,59,4.0,11.0,29,0.00,,,0.00,WUHU216DAVISVP2,2013-02-08 19:43:00,
2013-02-08 13:48:00,69.2,36.4,30.12,NE,42,4.0,11.0,30,0.00,,,0.00,WUHU216DAVISVP2,2013-02-08 19:48:00,
2013-02-08 13:53:00,69.3,35.7,30.12,ENE,71,8.0,10.0,29,0.00,,,0.00,WUHU216DAVISVP2,2013-02-08 19:53:00,
2013-02-08 13:58:00,69.6,37.4,30.11,NE,50,6.0,11.0,31,0.00,,,0.00,WUHU216DAVISVP2,2013-02-08 19:58:00,
2013-02-08 14:03:00,69.7,35.8,30.11,NE,39,4.0,11.0,29,0.00,,,0.00,WUHU216DAVISVP2,2013-02-08 20:03:00,
2013-02-08 14:08:00,69.7,35.0,30.11,NNE,23,2.0,11.0,28,0.00,,,0.00,WUHU216DAVISVP2,2013-02-08 20:08:00,
2013-02-08 14:13:00,70.0,35.2,30.11,East,82,2.0,11.0,28,0.00,,,0.00,WUHU216DAVISVP2,2013-02-08 20:13:00,
2013-02-08 14:18:00,69.7,35.8,30.11,ENE,59,9.0,10.0,29,0.00,,,0.00,WUHU216DAVISVP2,2013-02-08 20:18:00,
2013-02-08 14:23:00,70.2,35.4,30.11,NNE,31,5.0,11.0,28,0.00,,,0.00,WUHU216DAVISVP2,2013-02-08 20:23:00,
2013-02-08 14:28:00,70.8,35.0,30.11,NNE,16,8.0,11.0,27,0.00,,,0.00,WUHU216DAVISVP2,2013-02-08 20:28:00,
2013-02-08 14:33:00,70.9,35.1,30.11,ENE,76,4.0,11.0,27,0.00,,,0.00,WUHU216DAVISVP2,2013-02-08 20:33:00,
2013-02-08 14:38:00,70.7,34.9,30.11,NE,38,1.0,11.0,27,0.00,,,0.00,WUHU216DAVISVP2,2013-02-08 20:38:00,
2013-02-08 14:43:00,70.6,34.8,30.11,East,80,5.0,11.0,27,0.00,,,0.00,WUHU216DAVISVP2,2013-02-08 20:43:00,
2013-02-08 14:48:00,70.4,34.7,30.11,NNE,27,2.0,11.0,27,0.00,,,0.00,WUHU216DAVISVP2,2013-02-08 20:48:00,
2013-02-08 14:53:00,70.1,36.3,30.11,NE,52,2.0,11.0,29,0.00,,,0.00,WUHU216DAVISVP2,2013-02-08 20:53:00,
2013-02-08 14:59:00,70.5,38.4,30.10,ENE,71,4.0,8.0,31,0.00,,,0.00,WUHU216DAVISVP2,2013-02-08 20:59:00,
2013-02-08 15:04:00,70.8,36.1,30.10,East,92,5.0,8.0,28,0.00,,,0.00,WUHU216DAVISVP2,2013-02-08 21:04:00,
2013-02-08 15:09:00,70.6,35.7,30.09,NE,36,2.0,8.0,28,0.00,,,0.00,WUHU216DAVISVP2,2013-02-08 21:09:00,
2013-02-08 15:14:00,70.3,33.6,30.09,East,84,3.0,9.0,26,0.00,,,0.00,WUHU216DAVISVP2,2013-02-08 21:14:00,
2013-02-08 15:19:00,69.8,35.0,30.09,ENE,62,0.0,9.0,28,0.00,,,0.00,WUHU216DAVISVP2,2013-02-08 21:19:00,
2013-02-08 15:24:00,69.7,35.0,30.09,East,84,5.0,9.0,28,0.00,,,0.00,WUHU216DAVISVP2,2013-02-08 21:24:00,
2013-02-08 15:29:00,69.2,34.5,30.10,East,94,3.0,9.0,28,0.00,,,0.00,WUHU216DAVISVP2,2013-02-08 21:29:00,
2013-02-08 15:34:00,69.2,36.3,30.10,NE,42,3.0,7.0,30,0.00,,,0.00,WUHU216DAVISVP2,2013-02-08 21:34:00,
2013-02-08 15:39:00,69.0,35.2,30.10,ENE,59,3.0,6.0,29,0.00,,,0.00,WUHU216DAVISVP2,2013-02-08 21:39:00,
2013-02-08 15:44:00,68.7,35.0,30.09,NNE,30,2.0,6.0,29,0.00,,,0.00,WUHU216DAVISVP2,2013-02-08 21:44:00,
2013-02-08 15:49:00,68.5,35.6,30.09,NE,38,4.0,6.0,30,0.00,,,0.00,WUHU216DAVISVP2,2013-02-08 21:49:00,
2013-02-08 15:54:00,68.6,34.9,30.09,ENE,74,2.0,6.0,29,0.00,,,0.00,WUHU216DAVISVP2,2013-02-08 21:54:00,
2013-02-08 15:59:00,68.5,34.8,30.09,ENE,71,2.0,6.0,29,0.00,,,0.00,WUHU216DAVISVP2,2013-02-08 21:59:00,
2013-02-08 16:04:00,68.3,34.6,30.09,ESE,108,3.0,5.0,29,0.00,,,0.00,WUHU216DAVISVP2,2013-02-08 22:04:00,
2013-02-08 16:09:00,68.1,33.6,30.09,ESE,107,7.0,7.0,28,0.00,,,0.00,WUHU216DAVISVP2,2013-02-08 22:09:00,
2013-02-08 16:14:00,68.0,34.4,30.09,ENE,61,2.0,7.0,29,0.00,,,0.00,WUHU216DAVISVP2,2013-02-08 22:14:00,
2013-02-08 16:19:00,67.9,35.3,30.08,ENE,75,0.0,7.0,30,0.00,,,0.00,WUHU216DAVISVP2,2013-02-08 22:19:00,
2013-02-08 16:24:00,67.9,35.3,30.08,ENE,71,0.0,7.0,30,0.00,,,0.00,WUHU216DAVISVP2,2013-02-08 22:24:00,
2013-02-08 16:29:00,67.9,35.3,30.08,East,86,1.0,4.0,30,0.00,,,0.00,WUHU216DAVISVP2,2013-02-08 22:29:00,
2013-02-08 16:34:00,67.9,35.3,30.08,ENE,63,1.0,5.0,30,0.00,,,0.00,WUHU216DAVISVP2,2013-02-08 22:34:00,
2013-02-08 16:39:00,67.9,35.3,30.08,East,89,0.0,5.0,30,0.00,,,0.00,WUHU216DAVISVP2,2013-02-08 22:39:00,
2013-02-08 16:44:00,67.8,35.2,30.08,NE,44,1.0,7.0,30,0.00,,,0.00,WUHU216DAVISVP2,2013-02-08 22:44:00,
2013-02-08 16:49:00,67.7,35.1,30.08,ENE,75,0.0,7.0,30,0.00,,,0.00,WUHU216DAVISVP2,2013-02-08 22:49:00,
2013-02-08 16:54:00,67.6,35.0,30.08,ENE,61,3.0,7.0,30,0.00,,,0.00,WUHU216DAVISVP2,2013-02-08 22:54:00,
2013-02-08 16:59:00,67.8,36.0,30.08,NE,56,2.0,7.0,31,0.00,,,0.00,WUHU216DAVISVP2,2013-02-08 22:59:00,
2013-02-08 17:04:00,67.8,36.0,30.08,ENE,70,2.0,3.0,31,0.00,,,0.00,WUHU216DAVISVP2,2013-02-08 23:04:00,
2013-02-08 17:09:00,67.7,36.8,30.08,ENE,67,1.0,3.0,32,0.00,,,0.00,WUHU216DAVISVP2,2013-02-08 23:09:00,
2013-02-08 17:14:00,67.5,35.8,30.08,NNE,24,2.0,3.0,31,0.00,,,0.00,WUHU216DAVISVP2,2013-02-08 23:14:00,
2013-02-08 17:19:00,67.3,36.4,30.08,ENE,76,2.0,3.0,32,0.00,,,0.00,WUHU216DAVISVP2,2013-02-08 23:19:00,
2013-02-08 17:24:00,67.1,37.8,30.08,East,80,0.0,3.0,34,0.00,,,0.00,WUHU216DAVISVP2,2013-02-08 23:24:00,
2013-02-08 17:34:00,66.7,35.7,30.07,NE,55,0.0,3.0,32,0.00,,,0.00,WUHU216DAVISVP2,2013-02-08 23:34:00,
2013-02-08 17:39:00,66.6,36.4,30.07,NE,51,1.0,3.0,33,0.00,,,0.00,WUHU216DAVISVP2,2013-02-08 23:39:00,
2013-02-08 17:44:00,66.5,37.1,30.07,NE,53,1.0,3.0,34,0.00,,,0.00,WUHU216DAVISVP2,2013-02-08 23:44:00,
2013-02-08 17:49:00,66.3,36.1,30.08,NE,50,0.0,3.0,33,0.00,,,0.00,WUHU216DAVISVP2,2013-02-08 23:49:00,
2013-02-08 17:54:00,66.2,36.8,30.08,NE,50,0.0,3.0,34,0.00,,,0.00,WUHU216DAVISVP2,2013-02-08 23:54:00,
2013-02-08 17:59:00,66.1,36.7,30.08,NE,50,0.0,3.0,34,0.00,,,0.00,WUHU216DAVISVP2,2013-02-08 23:59:00,
2013-02-08 18:04:00,65.8,36.4,30.08,NE,50,0.0,1.0,34,0.00,,,0.00,WUHU216DAVISVP2,2013-02-09 00:04:00,
2013-02-08 18:09:00,65.5,39.0,30.08,NE,50,0.0,0.0,38,0.00,,,0.00,WUHU216DAVISVP2,2013-02-09 00:09:00,
2013-02-08 18:15:00,65.0,37.9,30.08,NE,50,0.0,0.0,37,0.00,,,0.00,WUHU216DAVISVP2,2013-02-09 00:15:00,
2013-02-08 18:20:00,64.7,37.6,30.08,NE,50,0.0,0.0,37,0.00,,,0.00,WUHU216DAVISVP2,2013-02-09 00:20:00,
2013-02-08 18:25:00,64.4,36.7,30.08,NE,50,0.0,0.0,36,0.00,,,0.00,WUHU216DAVISVP2,2013-02-09 00:25:00,
2013-02-08 18:30:00,64.1,36.4,30.08,NE,50,0.0,0.0,36,0.00,,,0.00,WUHU216DAVISVP2,2013-02-09 00:30:00,
2013-02-08 18:35:00,63.8,40.3,30.08,NE,50,0.0,0.0,42,0.00,,,0.00,WUHU216DAVISVP2,2013-02-09 00:35:00,
2013-02-08 18:40:00,63.4,38.5,30.07,NE,50,0.0,0.0,40,0.00,,,0.00,WUHU216DAVISVP2,2013-02-09 00:40:00,
2013-02-08 18:45:00,63.0,38.1,30.07,NE,50,0.0,1.0,40,0.00,,,0.00,WUHU216DAVISVP2,2013-02-09 00:45:00,
2013-02-08 18:50:00,62.8,37.3,30.07,NE,50,0.0,1.0,39,0.00,,,0.00,WUHU216DAVISVP2,2013-02-09 00:50:00,
2013-02-08 18:55:00,62.6,36.5,30.08,NE,50,0.0,1.0,38,0.00,,,0.00,WUHU216DAVISVP2,2013-02-09 00:55:00,
2013-02-08 19:00:00,62.5,38.3,30.07,NE,50,0.0,1.0,41,0.00,,,0.00,WUHU216DAVISVP2,2013-02-09 01:00:00,
2013-02-08 19:05:00,62.2,39.3,30.07,NE,50,0.0,0.0,43,0.00,,,0.00,WUHU216DAVISVP2,2013-02-09 01:05:00,
2013-02-08 19:10:00,61.5,41.0,30.07,NE,50,0.0,2.0,47,0.00,,,0.00,WUHU216DAVISVP2,2013-02-09 01:10:00,
2013-02-08 19:15:00,61.0,42.2,30.08,NE,50,0.0,2.0,50,0.00,,,0.00,WUHU216DAVISVP2,2013-02-09 01:15:00,
2013-02-08 19:20:00,60.7,38.6,30.07,NE,50,0.0,2.0,44,0.00,,,0.00,WUHU216DAVISVP2,2013-02-09 01:20:00,
2013-02-08 19:25:00,60.6,40.2,30.08,NE,50,0.0,2.0,47,0.00,,,0.00,WUHU216DAVISVP2,2013-02-09 01:25:00,
2013-02-08 19:30:00,60.6,37.3,30.08,NE,50,0.0,0.0,42,0.00,,,0.00,WUHU216DAVISVP2,2013-02-09 01:30:00,
2013-02-08 19:35:00,60.7,39.2,30.07,NE,50,0.0,0.0,45,0.00,,,0.00,WUHU216DAVISVP2,2013-02-09 01:35:00,
2013-02-08 19:40:00,60.6,38.5,30.07,NE,50,0.0,1.0,44,0.00,,,0.00,WUHU216DAVISVP2,2013-02-09 01:40:00,
2013-02-08 19:45:00,60.5,39.6,30.07,NE,50,0.0,1.0,46,0.00,,,0.00,WUHU216DAVISVP2,2013-02-09 01:45:00,
2013-02-08 19:50:00,60.3,38.8,30.08,NE,50,0.0,1.0,45,0.00,,,0.00,WUHU216DAVISVP2,2013-02-09 01:50:00,
2013-02-08 19:55:00,60.1,37.4,30.08,NE,50,0.0,1.0,43,0.00,,,0.00,WUHU216DAVISVP2,2013-02-09 01:55:00,
2013-02-08 20:00:00,60.2,41.0,30.07,NE,50,0.0,0.0,49,0.00,,,0.00,WUHU216DAVISVP2,2013-02-09 02:00:00,
2013-02-08 20:05:00,60.0,39.1,30.08,NE,50,0.0,0.0,46,0.00,,,0.00,WUHU216DAVISVP2,2013-02-09 02:05:00,
2013-02-08 20:10:00,59.8,38.3,30.08,NE,50,0.0,0.0,45,0.00,,,0.00,WUHU216DAVISVP2,2013-02-09 02:10:00,
2013-02-08 20:15:00,59.8,41.1,30.07,NE,50,0.0,0.0,50,0.00,,,0.00,WUHU216DAVISVP2,2013-02-09 02:15:00,
2013-02-08 20:20:00,59.5,39.8,30.08,NE,50,0.0,0.0,48,0.00,,,0.00,WUHU216DAVISVP2,2013-02-09 02:20:00,
2013-02-08 20:25:00,59.3,38.5,30.08,NE,50,0.0,0.0,46,0.00,,,0.00,WUHU216DAVISVP2,2013-02-09 02:25:00,
2013-02-08 20:30:00,59.3,39.1,30.07,NE,50,0.0,1.0,47,0.00,,,0.00,WUHU216DAVISVP2,2013-02-09 02:30:00,
2013-02-08 20:35:00,59.3,38.5,30.08,NE,50,0.0,1.0,46,0.00,,,0.00,WUHU216DAVISVP2,2013-02-09 02:35:00,
2013-02-08 20:40:00,59.4,38.5,30.08,NE,50,0.0,1.0,46,0.00,,,0.00,WUHU216DAVISVP2,2013-02-09 02:40:00,
2013-02-08 20:45:00,59.4,38.0,30.09,NE,50,0.0,1.0,45,0.00,,,0.00,WUHU216DAVISVP2,2013-02-09 02:45:00,
2013-02-08 20:50:00,59.4,38.5,30.08,NE,50,0.0,0.0,46,0.00,,,0.00,WUHU216DAVISVP2,2013-02-09 02:50:00,
2013-02-08 20:55:00,59.3,39.0,30.08,NE,50,0.0,0.0,47,0.00,,,0.00,WUHU216DAVISVP2,2013-02-09 02:55:00,
2013-02-08 21:00:00,59.1,39.4,30.08,NE,50,0.0,0.0,48,0.00,,,0.00,WUHU216DAVISVP2,2013-02-09 03:00:00,
2013-02-08 21:05:00,58.9,40.3,30.08,NE,50,0.0,0.0,50,0.00,,,0.00,WUHU216DAVISVP2,2013-02-09 03:05:00,
2013-02-08 21:11:00,58.7,39.6,30.08,NE,50,0.0,0.0,49,0.00,,,0.00,WUHU216DAVISVP2,2013-02-09 03:11:00,
2013-02-08 21:16:00,58.5,39.4,30.08,NE,50,0.0,0.0,49,0.00,,,0.00,WUHU216DAVISVP2,2013-02-09 03:16:00,
2013-02-08 21:21:00,58.3,39.2,30.08,NE,50,0.0,0.0,49,0.00,,,0.00,WUHU216DAVISVP2,2013-02-09 03:21:00,
2013-02-08 21:26:00,58.3,39.2,30.09,NE,50,0.0,0.0,49,0.00,,,0.00,WUHU216DAVISVP2,2013-02-09 03:26:00,
2013-02-08 21:31:00,58.3,40.3,30.09,NE,50,0.0,0.0,51,0.00,,,0.00,WUHU216DAVISVP2,2013-02-09 03:31:00,
2013-02-08 21:36:00,58.0,39.5,30.08,NE,50,0.0,1.0,50,0.00,,,0.00,WUHU216DAVISVP2,2013-02-09 03:36:00,
2013-02-08 21:41:00,57.8,39.8,30.09,NE,50,0.0,1.0,51,0.00,,,0.00,WUHU216DAVISVP2,2013-02-09 03:41:00,
2013-02-08 21:46:00,57.6,38.6,30.09,NE,50,0.0,1.0,49,0.00,,,0.00,WUHU216DAVISVP2,2013-02-09 03:46:00,
2013-02-08 21:51:00,57.5,39.0,30.09,NE,50,0.0,1.0,50,0.00,,,0.00,WUHU216DAVISVP2,2013-02-09 03:51:00,
2013-02-08 21:56:00,57.3,39.9,30.08,NE,50,0.0,0.0,52,0.00,,,0.00,WUHU216DAVISVP2,2013-02-09 03:56:00,
2013-02-08 22:01:00,56.7,40.3,30.08,NE,50,0.0,0.0,54,0.00,,,0.00,WUHU216DAVISVP2,2013-02-09 04:01:00,
2013-02-08 22:06:00,56.1,39.7,30.08,NE,50,0.0,0.0,54,0.00,,,0.00,WUHU216DAVISVP2,2013-02-09 04:06:00,
2013-02-08 22:11:00,56.0,39.6,30.08,NE,50,0.0,0.0,54,0.00,,,0.00,WUHU216DAVISVP2,2013-02-09 04:11:00,
2013-02-08 22:16:00,55.9,39.5,30.08,NE,50,0.0,0.0,54,0.00,,,0.00,WUHU216DAVISVP2,2013-02-09 04:16:00,
2013-02-08 22:21:00,55.9,39.5,30.08,NE,50,0.0,0.0,54,0.00,,,0.00,WUHU216DAVISVP2,2013-02-09 04:21:00,
2013-02-08 22:26:00,55.9,40.5,30.08,NE,50,0.0,0.0,56,0.00,,,0.00,WUHU216DAVISVP2,2013-02-09 04:26:00,
2013-02-08 22:31:00,55.5,41.1,30.08,NE,50,0.0,0.0,58,0.00,,,0.00,WUHU216DAVISVP2,2013-02-09 04:31:00,
2013-02-08 22:36:00,55.0,40.1,30.08,NE,50,0.0,0.0,57,0.00,,,0.00,WUHU216DAVISVP2,2013-02-09 04:36:00,
2013-02-08 22:41:00,54.8,40.4,30.08,NE,50,0.0,0.0,58,0.00,,,0.00,WUHU216DAVISVP2,2013-02-09 04:41:00,
2013-02-08 22:46:00,54.6,40.2,30.08,NE,50,0.0,1.0,58,0.00,,,0.00,WUHU216DAVISVP2,2013-02-09 04:46:00,
2013-02-08 22:51:00,54.6,40.2,30.08,NE,50,0.0,1.0,58,0.00,,,0.00,WUHU216DAVISVP2,2013-02-09 04:51:00,
2013-02-08 22:56:00,54.6,40.2,30.08,NE,50,0.0,1.0,58,0.00,,,0.00,WUHU216DAVISVP2,2013-02-09 04:56:00,
2013-02-08 23:00:00,54.7,40.3,30.08,NE,50,0.0,1.0,58,0.00,,,0.00,WUHU216DAVISVP2,2013-02-09 05:00:00,
2013-02-08 23:05:00,54.7,40.3,30.08,NE,50,0.0,1.0,58,0.00,,,0.00,WUHU216DAVISVP2,2013-02-09 05:05:00,
2013-02-08 23:10:00,54.7,40.3,30.08,NE,50,0.0,0.0,58,0.00,,,0.00,WUHU216DAVISVP2,2013-02-09 05:10:00,
2013-02-08 23:15:00,54.7,41.2,30.07,NE,50,0.0,0.0,60,0.00,,,0.00,WUHU216DAVISVP2,2013-02-09 05:15:00,
2013-02-08 23:20:00,54.4,40.8,30.08,NE,50,0.0,0.0,60,0.00,,,0.00,WUHU216DAVISVP2,2013-02-09 05:20:00,
2013-02-08 23:26:00,54.0,41.0,30.07,NE,50,0.0,0.0,61,0.00,,,0.00,WUHU216DAVISVP2,2013-02-09 05:26:00,
2013-02-08 23:31:00,53.8,40.3,30.08,NE,50,0.0,0.0,60,0.00,,,0.00,WUHU216DAVISVP2,2013-02-09 05:31:00,
2013-02-08 23:36:00,53.9,40.4,30.08,NE,50,0.0,0.0,60,0.00,,,0.00,WUHU216DAVISVP2,2013-02-09 05:36:00,
2013-02-08 23:41:00,54.0,41.0,30.08,NE,50,0.0,0.0,61,0.00,,,0.00,WUHU216DAVISVP2,2013-02-09 05:41:00,
2013-02-08 23:46:00,53.8,41.2,30.07,NE,50,0.0,0.0,62,0.00,,,0.00,WUHU216DAVISVP2,2013-02-09 05:46:00,
2013-02-08 23:51:00,53.5,40.5,30.07,NE,50,0.0,0.0,61,0.00,,,0.00,WUHU216DAVISVP2,2013-02-09 05:51:00,
2013-02-08 23:56:00,53.4,40.4,30.07,NE,50,0.0,0.0,61,0.00,,,0.00,WUHU216DAVISVP2,2013-02-09 05:56:00,